Location: Axtheid
(49.6213°N, 11.8205°E)
Time: 23:04:44
(UTC+00:00)

Envisat - Pass Details

Date: 21 January 2022
Orbit: 764 x 765 km, 98.2° (Epoch: 22 May)

Event Time Altitude Azimuth Distance (km) Brightness Sun altitude
Rises 05:41:18 0° 4° (N) 3,243 6.1 -12.3°
Reaches altitude 10° 05:44:04 10° 350° (N) 2,312 5.2 -11.9°
Maximum altitude 05:47:52 22° 301° (WNW) 1,645 4.1 -11.3°
Drops below altitude 10° 05:51:39 10° 253° (WSW) 2,302 5.0 -10.7°
Sets 05:54:24 0° 238° (WSW) 3,224 5.9 -10.3°
